Time,TemperatureF,DewpointF,PressureIn,WindDirection,WindDirectionDegrees,WindSpeedMPH,WindSpeedGustMPH,Humidity,HourlyPrecipIn,Conditions,Clouds,dailyrainin,SoftwareType,DateUTC
2013-10-28 00:01:00,35.4,-1.6,29.74,North,349,0.0,0.0,20,0.00,,---,0.00,VWS V13.01,2013-10-28 04:01:00,
2013-10-28 00:02:00,35.4,-1.6,29.74,North,349,0.0,0.0,20,0.00,,---,0.00,VWS V13.01,2013-10-28 04:02:00,
2013-10-28 00:03:00,35.2,-1.8,29.74,North,349,0.0,0.0,20,0.00,,---,0.00,VWS V13.01,2013-10-28 04:03:00,
2013-10-28 00:08:00,35.2,-1.8,29.74,North,349,0.0,0.0,20,0.00,,---,0.00,VWS V13.01,2013-10-28 04:08:00,
2013-10-28 00:13:00,35.2,-1.8,29.74,North,349,0.0,0.0,20,0.00,,---,0.00,VWS V13.01,2013-10-28 04:13:00,
2013-10-28 00:18:00,35.1,-2.0,29.74,North,349,0.0,0.0,20,0.00,,---,0.00,VWS V13.01,2013-10-28 04:18:00,
2013-10-28 00:23:00,35.1,-2.0,29.74,North,349,0.0,0.0,20,0.00,,---,0.00,VWS V13.01,2013-10-28 04:23:00,
2013-10-28 00:28:00,35.1,0.1,29.74,North,349,0.0,0.0,22,0.00,,---,0.00,VWS V13.01,2013-10-28 04:28:00,
2013-10-28 00:33:00,35.1,0.1,29.74,North,349,0.0,0.0,22,0.00,,---,0.00,VWS V13.01,2013-10-28 04:33:00,
2013-10-28 00:39:00,35.1,-2.0,29.74,North,349,0.0,0.0,20,0.00,,---,0.00,VWS V13.01,2013-10-28 04:39:00,
2013-10-28 00:44:00,34.9,-2.1,29.74,North,349,0.0,0.0,20,0.00,,---,0.00,VWS V13.01,2013-10-28 04:44:00,
2013-10-28 00:49:00,34.9,-2.1,29.74,North,349,0.0,0.0,20,0.00,,---,0.00,VWS V13.01,2013-10-28 04:49:00,
2013-10-28 00:54:00,34.9,-2.1,29.74,North,349,0.0,0.0,20,0.00,,---,0.00,VWS V13.01,2013-10-28 04:54:00,
2013-10-28 00:59:00,34.7,-2.3,29.74,North,349,0.0,0.0,20,0.00,,---,0.00,VWS V13.01,2013-10-28 04:59:00,
2013-10-28 01:04:00,34.5,-2.4,29.74,North,349,0.0,0.0,20,0.00,,---,0.00,VWS V13.01,2013-10-28 05:04:00,
2013-10-28 01:09:00,34.5,-0.4,29.74,North,349,0.0,0.0,22,0.00,,---,0.00,VWS V13.01,2013-10-28 05:09:00,
2013-10-28 01:14:00,34.3,-0.6,29.74,North,349,0.0,0.0,22,0.00,,---,0.00,VWS V13.01,2013-10-28 05:14:00,
2013-10-28 01:20:00,34.2,-0.7,29.74,North,349,0.0,0.0,22,0.00,,---,0.00,VWS V13.01,2013-10-28 05:20:00,
2013-10-28 01:25:00,34.2,-0.7,29.74,North,349,0.0,0.0,22,0.00,,---,0.00,VWS V13.01,2013-10-28 05:25:00,
2013-10-28 01:30:00,34.0,-0.9,29.77,North,349,0.0,0.0,22,0.00,,---,0.00,VWS V13.01,2013-10-28 05:30:00,
2013-10-28 01:35:00,34.0,-0.9,29.77,North,349,0.0,0.0,22,0.00,,---,0.00,VWS V13.01,2013-10-28 05:35:00,
2013-10-28 01:40:00,34.0,-0.9,29.77,North,349,0.0,0.0,22,0.00,,---,0.00,VWS V13.01,2013-10-28 05:40:00,
2013-10-28 01:45:00,34.0,-0.9,29.77,North,349,0.0,0.0,22,0.00,,---,0.00,VWS V13.01,2013-10-28 05:45:00,
2013-10-28 01:50:00,33.8,-1.0,29.77,North,349,0.0,0.0,22,0.00,,---,0.00,VWS V13.01,2013-10-28 05:50:00,
2013-10-28 01:55:00,33.8,-1.0,29.77,North,349,0.0,0.0,22,0.00,,---,0.00,VWS V13.01,2013-10-28 05:55:00,
2013-10-28 02:00:00,34.0,-0.9,29.77,North,349,0.0,0.0,22,0.00,,---,0.00,VWS V13.01,2013-10-28 06:00:00,
2013-10-28 02:06:00,34.2,-0.7,29.77,North,349,0.0,0.0,22,0.00,,---,0.00,VWS V13.01,2013-10-28 06:06:00,
2013-10-28 02:11:00,34.3,-0.6,29.77,North,349,0.0,0.0,22,0.00,,---,0.00,VWS V13.01,2013-10-28 06:11:00,
2013-10-28 02:16:00,34.3,-0.6,29.77,North,349,0.0,0.0,22,0.00,,---,0.00,VWS V13.01,2013-10-28 06:16:00,
2013-10-28 02:21:00,34.3,-0.6,29.77,North,349,0.0,0.0,22,0.00,,---,0.00,VWS V13.01,2013-10-28 06:21:00,
2013-10-28 02:26:00,34.3,-0.6,29.77,North,349,0.0,0.0,22,0.00,,---,0.00,VWS V13.01,2013-10-28 06:26:00,
2013-10-28 02:31:00,34.2,-0.7,29.77,North,349,0.0,0.0,22,0.00,,---,0.00,VWS V13.01,2013-10-28 06:31:00,
2013-10-28 02:37:00,34.2,-0.7,29.77,North,349,0.0,0.0,22,0.00,,---,0.00,VWS V13.01,2013-10-28 06:37:00,
2013-10-28 02:42:00,34.2,-0.7,29.77,North,349,0.0,0.0,22,0.00,,---,0.00,VWS V13.01,2013-10-28 06:42:00,
2013-10-28 02:47:00,34.3,2.2,29.77,North,349,0.0,0.0,25,0.00,,---,0.00,VWS V13.01,2013-10-28 06:47:00,
2013-10-28 02:52:00,34.3,2.2,29.77,North,349,0.0,0.0,25,0.00,,---,0.00,VWS V13.01,2013-10-28 06:52:00,
2013-10-28 02:57:00,34.3,-0.6,29.77,North,349,0.0,0.0,22,0.00,,---,0.00,VWS V13.01,2013-10-28 06:57:00,
2013-10-28 03:02:00,34.2,-0.7,29.77,North,349,0.0,0.0,22,0.00,,---,0.00,VWS V13.01,2013-10-28 07:02:00,
2013-10-28 03:07:00,34.2,-0.7,29.77,North,349,0.0,0.0,22,0.00,,---,0.00,VWS V13.01,2013-10-28 07:07:00,
2013-10-28 03:12:00,34.2,-0.7,29.77,North,349,0.0,0.0,22,0.00,,---,0.00,VWS V13.01,2013-10-28 07:12:00,
2013-10-28 03:18:00,34.0,-0.9,29.74,North,349,0.0,0.0,22,0.00,,---,0.00,VWS V13.01,2013-10-28 07:18:00,
2013-10-28 03:23:00,34.0,1.9,29.74,North,349,0.0,0.0,25,0.00,,---,0.00,VWS V13.01,2013-10-28 07:23:00,
2013-10-28 03:28:00,33.8,1.7,29.74,North,349,0.0,0.0,25,0.00,,---,0.00,VWS V13.01,2013-10-28 07:28:00,
2013-10-28 03:33:00,33.8,1.7,29.77,North,349,0.0,0.0,25,0.00,,---,0.00,VWS V13.01,2013-10-28 07:33:00,
2013-10-28 03:38:00,33.6,1.6,29.77,North,349,0.0,0.0,25,0.00,,---,0.00,VWS V13.01,2013-10-28 07:38:00,
2013-10-28 03:43:00,33.6,1.6,29.77,North,349,0.0,0.0,25,0.00,,---,0.00,VWS V13.01,2013-10-28 07:43:00,
2013-10-28 03:48:00,33.4,1.4,29.77,North,349,0.0,0.0,25,0.00,,---,0.00,VWS V13.01,2013-10-28 07:48:00,
2013-10-28 03:53:00,33.3,1.2,29.77,North,349,0.0,0.0,25,0.00,,---,0.00,VWS V13.01,2013-10-28 07:53:00,
2013-10-28 03:58:00,33.3,1.2,29.77,North,349,0.0,0.0,25,0.00,,---,0.00,VWS V13.01,2013-10-28 07:58:00,
2013-10-28 04:03:00,33.1,1.1,29.77,North,349,0.0,0.0,25,0.00,,---,0.00,VWS V13.01,2013-10-28 08:03:00,
2013-10-28 04:08:00,33.1,1.1,29.77,North,349,0.0,0.0,25,0.00,,---,0.00,VWS V13.01,2013-10-28 08:08:00,
2013-10-28 04:14:00,32.9,0.9,29.77,North,349,0.0,0.0,25,0.00,,---,0.00,VWS V13.01,2013-10-28 08:14:00,
2013-10-28 04:19:00,32.7,0.8,29.77,North,349,0.0,0.0,25,0.00,,---,0.00,VWS V13.01,2013-10-28 08:19:00,
2013-10-28 04:24:00,32.7,0.8,29.77,North,349,0.0,0.0,25,0.00,,---,0.00,VWS V13.01,2013-10-28 08:24:00,
2013-10-28 04:29:00,32.5,3.1,29.77,North,349,0.0,0.0,28,0.00,,---,0.00,VWS V13.01,2013-10-28 08:29:00,
2013-10-28 04:34:00,32.5,3.1,29.77,North,349,0.0,0.0,28,0.00,,---,0.00,VWS V13.01,2013-10-28 08:34:00,
2013-10-28 04:39:00,32.4,2.9,29.77,North,349,0.0,0.0,28,0.00,,---,0.00,VWS V13.01,2013-10-28 08:39:00,
2013-10-28 04:44:00,32.4,4.4,29.77,North,349,0.0,0.0,30,0.00,,---,0.00,VWS V13.01,2013-10-28 08:44:00,
2013-10-28 04:49:00,32.4,4.4,29.77,North,349,0.0,0.0,30,0.00,,---,0.00,VWS V13.01,2013-10-28 08:49:00,
2013-10-28 04:54:00,32.2,2.8,29.77,North,349,0.0,0.0,28,0.00,,---,0.00,VWS V13.01,2013-10-28 08:54:00,
2013-10-28 04:59:00,32.2,2.8,29.77,North,349,0.0,0.0,28,0.00,,---,0.00,VWS V13.01,2013-10-28 08:59:00,
2013-10-28 05:04:00,32.2,2.8,29.77,North,349,0.0,0.0,28,0.00,,---,0.00,VWS V13.01,2013-10-28 09:04:00,
2013-10-28 05:09:00,32.0,2.6,29.77,North,349,0.0,0.0,28,0.00,,---,0.00,VWS V13.01,2013-10-28 09:09:00,
2013-10-28 05:15:00,32.0,2.6,29.77,North,349,0.0,0.0,28,0.00,,---,0.00,VWS V13.01,2013-10-28 09:15:00,
2013-10-28 05:20:00,31.8,3.9,29.77,North,349,0.0,0.0,30,0.00,,---,0.00,VWS V13.01,2013-10-28 09:20:00,
2013-10-28 05:25:00,31.6,3.8,29.77,North,349,0.0,0.0,30,0.00,,---,0.00,VWS V13.01,2013-10-28 09:25:00,
2013-10-28 05:30:00,31.6,3.8,29.77,North,349,0.0,0.0,30,0.00,,---,0.00,VWS V13.01,2013-10-28 09:30:00,
2013-10-28 05:35:00,31.6,3.8,29.77,North,349,0.0,0.0,30,0.00,,---,0.00,VWS V13.01,2013-10-28 09:35:00,
2013-10-28 05:40:00,31.5,3.6,29.77,North,349,0.0,0.0,30,0.00,,---,0.00,VWS V13.01,2013-10-28 09:40:00,
2013-10-28 05:45:00,31.3,3.5,29.77,North,349,0.0,0.0,30,0.00,,---,0.00,VWS V13.01,2013-10-28 09:45:00,
2013-10-28 05:50:00,31.1,3.3,29.77,North,349,0.0,0.0,30,0.00,,---,0.00,VWS V13.01,2013-10-28 09:50:00,
2013-10-28 05:55:00,31.1,3.3,29.77,North,349,0.0,0.0,30,0.00,,---,0.00,VWS V13.01,2013-10-28 09:55:00,
2013-10-28 06:00:00,31.1,3.3,29.77,North,349,0.0,0.0,30,0.00,,---,0.00,VWS V13.01,2013-10-28 10:00:00,
2013-10-28 06:05:00,31.1,3.3,29.77,North,349,0.0,0.0,30,0.00,,---,0.00,VWS V13.01,2013-10-28 10:05:00,
2013-10-28 06:10:00,31.1,3.3,29.77,North,349,0.0,0.0,30,0.00,,---,0.00,VWS V13.01,2013-10-28 10:10:00,
2013-10-28 06:15:00,31.1,3.3,29.77,NNW,346,0.0,0.0,30,0.00,,---,0.00,VWS V13.01,2013-10-28 10:15:00,
2013-10-28 06:21:00,30.9,3.1,29.77,North,349,0.0,0.0,30,0.00,,---,0.00,VWS V13.01,2013-10-28 10:21:00,
2013-10-28 06:26:00,30.9,3.1,29.77,North,349,0.0,0.0,30,0.00,,---,0.00,VWS V13.01,2013-10-28 10:26:00,
2013-10-28 06:31:00,30.9,3.1,29.80,North,349,0.0,0.0,30,0.00,,---,0.00,VWS V13.01,2013-10-28 10:31:00,
2013-10-28 06:36:00,30.9,3.1,29.80,North,349,0.0,0.0,30,0.00,,---,0.00,VWS V13.01,2013-10-28 10:36:00,
2013-10-28 06:41:00,30.7,3.0,29.80,North,349,0.0,0.0,30,0.00,,---,0.00,VWS V13.01,2013-10-28 10:41:00,
2013-10-28 06:46:00,30.7,3.0,29.80,North,349,0.0,0.0,30,0.00,,---,0.00,VWS V13.01,2013-10-28 10:46:00,
2013-10-28 06:51:00,30.7,3.7,29.80,North,349,0.0,0.0,31,0.00,,---,0.00,VWS V13.01,2013-10-28 10:51:00,
2013-10-28 06:56:00,30.6,3.5,29.80,North,349,0.0,0.0,31,0.00,,---,0.00,VWS V13.01,2013-10-28 10:56:00,
2013-10-28 07:01:00,30.6,3.5,29.80,North,349,0.0,0.0,31,0.00,,---,0.00,VWS V13.01,2013-10-28 11:01:00,
2013-10-28 07:06:00,30.6,3.5,29.80,North,349,0.0,0.0,31,0.00,,---,0.00,VWS V13.01,2013-10-28 11:06:00,
2013-10-28 07:11:00,30.6,3.5,29.80,North,349,0.0,0.0,31,0.00,,---,0.00,VWS V13.01,2013-10-28 11:11:00,
2013-10-28 07:16:00,30.6,3.5,29.80,North,349,0.0,0.0,31,0.00,,---,0.00,VWS V13.01,2013-10-28 11:16:00,
2013-10-28 07:21:00,30.6,3.5,29.80,North,349,0.0,0.0,31,0.00,,---,0.00,VWS V13.01,2013-10-28 11:21:00,
2013-10-28 07:27:00,30.6,3.5,29.80,NNW,334,0.0,0.0,31,0.00,,---,0.00,VWS V13.01,2013-10-28 11:27:00,
2013-10-28 07:32:00,30.6,3.5,29.80,NNW,334,0.0,0.0,31,0.00,,---,0.00,VWS V13.01,2013-10-28 11:32:00,
2013-10-28 07:37:00,30.6,3.5,29.80,NNW,334,0.0,0.0,31,0.00,,---,0.00,VWS V13.01,2013-10-28 11:37:00,
2013-10-28 07:42:00,30.7,3.7,29.80,NNW,334,0.0,0.0,31,0.00,,---,0.00,VWS V13.01,2013-10-28 11:42:00,
2013-10-28 07:47:00,30.9,3.8,29.80,NNW,334,0.0,0.0,31,0.00,,---,0.00,VWS V13.01,2013-10-28 11:47:00,
2013-10-28 07:52:00,31.1,4.0,29.80,NNW,334,0.0,0.0,31,0.00,,---,0.00,VWS V13.01,2013-10-28 11:52:00,
2013-10-28 07:57:00,31.5,4.3,29.80,NNW,334,0.0,0.0,31,0.00,,---,0.00,VWS V13.01,2013-10-28 11:57:00,
2013-10-28 08:02:00,31.8,4.6,29.83,NNW,334,0.0,0.0,31,0.00,,---,0.00,VWS V13.01,2013-10-28 12:02:00,
2013-10-28 08:07:00,32.2,5.0,29.83,NNW,334,0.0,0.0,31,0.00,,---,0.00,VWS V13.01,2013-10-28 12:07:00,
2013-10-28 08:12:00,32.4,5.1,29.83,NNW,334,0.0,0.0,31,0.00,,---,0.00,VWS V13.01,2013-10-28 12:12:00,
2013-10-28 08:17:00,32.5,5.3,29.83,NNW,334,0.0,0.0,31,0.00,,---,0.00,VWS V13.01,2013-10-28 12:17:00,
2013-10-28 08:22:00,32.7,5.4,29.83,NNW,334,0.0,0.0,31,0.00,,---,0.00,VWS V13.01,2013-10-28 12:22:00,
2013-10-28 08:27:00,33.3,5.9,29.83,NNW,334,0.0,0.0,31,0.00,,---,0.00,VWS V13.01,2013-10-28 12:27:00,
2013-10-28 08:33:00,33.6,6.2,29.83,NNW,334,0.0,0.0,31,0.00,,---,0.00,VWS V13.01,2013-10-28 12:33:00,
2013-10-28 08:38:00,34.3,6.9,29.83,NNW,334,0.0,0.0,31,0.00,,---,0.00,VWS V13.01,2013-10-28 12:38:00,
2013-10-28 08:43:00,34.9,7.3,29.83,NNW,334,0.0,0.0,31,0.00,,---,0.00,VWS V13.01,2013-10-28 12:43:00,
2013-10-28 08:48:00,35.8,8.1,29.83,NNW,334,0.0,0.0,31,0.00,,---,0.00,VWS V13.01,2013-10-28 12:48:00,
2013-10-28 08:53:00,37.2,9.4,29.83,West,269,0.0,0.0,31,0.00,,---,0.00,VWS V13.01,2013-10-28 12:53:00,
2013-10-28 08:58:00,38.7,9.9,29.83,West,269,0.0,0.0,30,0.00,,---,0.00,VWS V13.01,2013-10-28 12:58:00,
2013-10-28 09:03:00,39.2,9.6,29.83,West,269,0.0,0.0,29,0.00,,---,0.00,VWS V13.01,2013-10-28 13:03:00,
2013-10-28 09:08:00,39.9,7.8,29.83,West,269,0.0,0.0,26,0.00,,---,0.00,VWS V13.01,2013-10-28 13:08:00,
2013-10-28 09:13:00,40.6,5.8,29.83,West,269,0.0,0.0,23,0.00,,---,0.00,VWS V13.01,2013-10-28 13:13:00,
2013-10-28 09:18:00,41.4,4.4,29.85,WSW,243,0.0,0.0,21,0.00,,---,0.00,VWS V13.01,2013-10-28 13:18:00,
2013-10-28 09:23:00,42.1,5.0,29.85,West,259,0.0,0.0,21,0.00,,---,0.00,VWS V13.01,2013-10-28 13:23:00,
2013-10-28 09:28:00,42.8,2.2,29.85,WSW,250,0.0,0.0,18,0.00,,---,0.00,VWS V13.01,2013-10-28 13:28:00,
2013-10-28 09:33:00,43.3,2.7,29.85,WSW,252,0.0,0.0,18,0.00,,---,0.00,VWS V13.01,2013-10-28 13:33:00,
2013-10-28 09:39:00,43.9,3.1,29.85,WNW,297,0.0,0.0,18,0.00,,---,0.00,VWS V13.01,2013-10-28 13:39:00,
2013-10-28 09:44:00,44.6,2.5,29.85,WNW,292,0.0,0.0,17,0.00,,---,0.00,VWS V13.01,2013-10-28 13:44:00,
2013-10-28 09:49:00,45.1,2.9,29.85,West,262,0.0,0.0,17,0.00,,---,0.00,VWS V13.01,2013-10-28 13:49:00,
2013-10-28 09:54:00,45.9,3.5,29.85,WNW,300,0.0,0.0,17,0.00,,---,0.00,VWS V13.01,2013-10-28 13:54:00,
2013-10-28 09:59:00,46.8,4.3,29.85,WSW,250,0.0,0.0,17,0.00,,---,0.00,VWS V13.01,2013-10-28 13:59:00,
2013-10-28 10:04:00,48.7,4.6,29.85,WSW,258,0.0,0.0,16,0.00,,---,0.00,VWS V13.01,2013-10-28 14:04:00,
2013-10-28 10:09:00,49.1,4.9,29.85,WSW,256,0.0,0.0,16,0.00,,---,0.00,VWS V13.01,2013-10-28 14:09:00,
2013-10-28 10:14:00,50.7,6.2,29.85,NW,322,0.0,0.0,16,0.00,,---,0.00,VWS V13.01,2013-10-28 14:14:00,
2013-10-28 10:19:00,56.7,9.6,29.85,West,265,0.0,4.5,15,0.00,,---,0.00,VWS V13.01,2013-10-28 14:19:00,
2013-10-28 10:24:00,59.5,10.3,29.85,SW,236,0.0,0.0,14,0.00,,---,0.00,VWS V13.01,2013-10-28 14:24:00,
2013-10-28 10:29:00,56.5,9.4,29.85,WSW,245,0.0,0.0,15,0.00,,---,0.00,VWS V13.01,2013-10-28 14:29:00,
2013-10-28 10:34:00,53.6,7.1,29.85,WSW,247,0.0,0.0,15,0.00,,---,0.00,VWS V13.01,2013-10-28 14:34:00,
2013-10-28 10:39:00,54.3,7.7,29.85,West,262,0.0,0.0,15,0.00,,---,0.00,VWS V13.01,2013-10-28 14:39:00,
2013-10-28 10:45:00,54.1,7.5,29.83,WNW,293,0.0,0.0,15,0.00,,---,0.00,VWS V13.01,2013-10-28 14:45:00,
2013-10-28 10:50:00,55.0,8.2,29.83,WNW,298,0.0,0.0,15,0.00,,---,0.00,VWS V13.01,2013-10-28 14:50:00,
2013-10-28 10:55:00,54.9,8.1,29.83,WNW,300,0.0,0.0,15,0.00,,---,0.00,VWS V13.01,2013-10-28 14:55:00,
2013-10-28 11:00:00,57.0,9.8,29.83,WSW,253,0.0,0.0,15,0.00,,---,0.00,VWS V13.01,2013-10-28 15:00:00,
2013-10-28 11:05:00,55.6,8.7,29.83,SW,236,0.0,2.7,15,0.00,,---,0.00,VWS V13.01,2013-10-28 15:05:00,
2013-10-28 11:10:00,55.4,8.5,29.83,WSW,252,0.0,2.7,15,0.00,,---,0.00,VWS V13.01,2013-10-28 15:10:00,
2013-10-28 11:15:00,55.2,8.4,29.83,NW,313,0.0,2.7,15,0.00,,---,0.00,VWS V13.01,2013-10-28 15:15:00,
2013-10-28 11:20:00,56.1,9.1,29.83,WSW,246,0.0,5.6,15,0.00,,---,0.00,VWS V13.01,2013-10-28 15:20:00,
2013-10-28 11:25:00,56.5,9.4,29.83,West,262,0.0,5.6,15,0.00,,---,0.00,VWS V13.01,2013-10-28 15:25:00,
2013-10-28 11:30:00,57.4,8.6,29.83,SW,234,0.0,5.6,14,0.00,,---,0.00,VWS V13.01,2013-10-28 15:30:00,
2013-10-28 11:35:00,58.1,9.2,29.83,WSW,250,4.0,5.6,14,0.00,,---,0.00,VWS V13.01,2013-10-28 15:35:00,
2013-10-28 11:40:00,60.1,10.8,29.83,WSW,238,0.0,2.7,14,0.00,,---,0.00,VWS V13.01,2013-10-28 15:40:00,
2013-10-28 11:45:00,61.3,11.8,29.83,WNW,289,0.0,3.1,14,0.00,,---,0.00,VWS V13.01,2013-10-28 15:45:00,
2013-10-28 11:51:00,60.3,10.9,29.83,WNW,284,0.0,3.1,14,0.00,,---,0.00,VWS V13.01,2013-10-28 15:51:00,
2013-10-28 11:56:00,60.3,10.9,29.83,SW,235,0.0,5.6,14,0.00,,---,0.00,VWS V13.01,2013-10-28 15:56:00,
2013-10-28 12:01:00,62.6,11.1,29.83,West,273,0.0,0.0,13,0.00,,---,0.00,VWS V13.01,2013-10-28 16:01:00,
2013-10-28 12:06:00,63.0,11.4,29.83,West,262,0.0,0.0,13,0.00,,---,0.00,VWS V13.01,2013-10-28 16:06:00,
2013-10-28 12:11:00,62.8,11.2,29.83,WSW,252,2.7,3.6,13,0.00,,---,0.00,VWS V13.01,2013-10-28 16:11:00,
2013-10-28 12:16:00,63.9,12.1,29.83,WNW,297,0.0,3.6,13,0.00,,---,0.00,VWS V13.01,2013-10-28 16:16:00,
2013-10-28 12:21:00,61.9,12.2,29.83,WSW,256,0.0,0.0,14,0.00,,---,0.00,VWS V13.01,2013-10-28 16:21:00,
2013-10-28 12:26:00,59.5,10.3,29.83,SW,219,0.0,4.7,14,0.00,,---,0.00,VWS V13.01,2013-10-28 16:26:00,
2013-10-28 12:31:00,58.6,9.6,29.83,SW,233,0.0,4.7,14,0.00,,---,0.00,VWS V13.01,2013-10-28 16:31:00,
2013-10-28 12:36:00,58.6,9.6,29.83,WSW,239,0.0,4.7,14,0.00,,---,0.00,VWS V13.01,2013-10-28 16:36:00,
2013-10-28 12:41:00,58.3,9.3,29.83,West,278,0.0,0.0,14,0.00,,---,0.00,VWS V13.01,2013-10-28 16:41:00,
2013-10-28 12:46:00,58.5,9.5,29.83,NNW,342,0.0,0.0,14,0.00,,---,0.00,VWS V13.01,2013-10-28 16:46:00,
2013-10-28 12:52:00,58.5,9.5,29.83,WNW,293,0.0,0.0,14,0.00,,---,0.00,VWS V13.01,2013-10-28 16:52:00,
2013-10-28 12:57:00,59.0,9.9,29.83,WSW,250,0.0,0.0,14,0.00,,---,0.00,VWS V13.01,2013-10-28 16:57:00,
2013-10-28 13:02:00,59.0,9.9,29.80,WSW,248,0.0,0.0,14,0.00,,---,0.00,VWS V13.01,2013-10-28 17:02:00,
2013-10-28 13:07:00,59.2,10.0,29.80,WSW,257,0.0,3.6,14,0.00,,---,0.00,VWS V13.01,2013-10-28 17:07:00,
2013-10-28 13:12:00,59.5,10.3,29.80,WSW,255,0.0,3.6,14,0.00,,---,0.00,VWS V13.01,2013-10-28 17:12:00,
2013-10-28 13:17:00,60.1,10.8,29.80,NW,319,0.0,3.6,14,0.00,,---,0.00,VWS V13.01,2013-10-28 17:17:00,
2013-10-28 13:22:00,60.3,10.9,29.80,South,189,0.0,0.0,14,0.00,,---,0.00,VWS V13.01,2013-10-28 17:22:00,
2013-10-28 13:27:00,61.3,11.8,29.80,NNW,332,0.0,0.0,14,0.00,,---,0.00,VWS V13.01,2013-10-28 17:27:00,
2013-10-28 13:32:00,61.2,11.6,29.80,WNW,290,0.0,0.0,14,0.00,,---,0.00,VWS V13.01,2013-10-28 17:32:00,
2013-10-28 13:37:00,60.4,11.0,29.80,NW,321,0.0,0.0,14,0.00,,---,0.00,VWS V13.01,2013-10-28 17:37:00,
2013-10-28 13:42:00,60.3,10.9,29.80,West,265,0.0,0.0,14,0.00,,---,0.00,VWS V13.01,2013-10-28 17:42:00,
2013-10-28 13:47:00,60.8,11.3,29.80,WNW,284,0.0,0.0,14,0.00,,---,0.00,VWS V13.01,2013-10-28 17:47:00,
2013-10-28 13:52:00,61.2,11.6,29.80,WSW,248,0.0,3.6,14,0.00,,---,0.00,VWS V13.01,2013-10-28 17:52:00,
2013-10-28 13:58:00,60.6,11.2,29.80,WNW,282,0.0,3.6,14,0.00,,---,0.00,VWS V13.01,2013-10-28 17:58:00,
2013-10-28 14:03:00,60.1,10.8,29.80,WNW,285,0.0,0.0,14,0.00,,---,0.00,VWS V13.01,2013-10-28 18:03:00,
2013-10-28 14:08:00,59.7,10.5,29.80,WSW,238,0.0,0.0,14,0.00,,---,0.00,VWS V13.01,2013-10-28 18:08:00,
2013-10-28 14:13:00,59.7,10.5,29.80,NW,317,0.0,0.0,14,0.00,,---,0.00,VWS V13.01,2013-10-28 18:13:00,
2013-10-28 14:18:00,59.7,10.5,29.80,SW,220,0.0,4.7,14,0.00,,---,0.00,VWS V13.01,2013-10-28 18:18:00,
2013-10-28 14:23:00,59.7,10.5,29.80,West,262,0.0,0.0,14,0.00,,---,0.00,VWS V13.01,2013-10-28 18:23:00,
2013-10-28 14:28:00,59.7,10.5,29.80,WNW,284,0.0,0.0,14,0.00,,---,0.00,VWS V13.01,2013-10-28 18:28:00,
2013-10-28 14:33:00,59.4,10.2,29.80,NW,317,0.0,0.0,14,0.00,,---,0.00,VWS V13.01,2013-10-28 18:33:00,
2013-10-28 14:38:00,59.4,10.2,29.80,SW,219,0.0,0.0,14,0.00,,---,0.00,VWS V13.01,2013-10-28 18:38:00,
2013-10-28 14:43:00,59.4,10.2,29.80,SSW,198,0.0,3.1,14,0.00,,---,0.00,VWS V13.01,2013-10-28 18:43:00,
2013-10-28 14:48:00,59.4,10.2,29.80,WNW,301,0.0,3.1,14,0.00,,---,0.00,VWS V13.01,2013-10-28 18:48:00,
2013-10-28 14:53:00,59.2,10.0,29.80,SW,226,0.0,3.1,14,0.00,,---,0.00,VWS V13.01,2013-10-28 18:53:00,
2013-10-28 14:59:00,59.0,9.9,29.80,WNW,287,0.0,3.1,14,0.00,,---,0.00,VWS V13.01,2013-10-28 18:59:00,
2013-10-28 15:04:00,59.2,10.0,29.80,West,264,0.0,0.0,14,0.00,,---,0.00,VWS V13.01,2013-10-28 19:04:00,
2013-10-28 15:09:00,59.4,10.2,29.80,WSW,247,0.0,0.0,14,0.00,,---,0.00,VWS V13.01,2013-10-28 19:09:00,
2013-10-28 15:14:00,59.4,10.2,29.80,WNW,295,0.0,0.0,14,0.00,,---,0.00,VWS V13.01,2013-10-28 19:14:00,
2013-10-28 15:19:00,59.2,10.0,29.80,SW,230,0.0,0.0,14,0.00,,---,0.00,VWS V13.01,2013-10-28 19:19:00,
2013-10-28 15:24:00,59.2,10.0,29.80,NW,322,0.0,0.0,14,0.00,,---,0.00,VWS V13.01,2013-10-28 19:24:00,
2013-10-28 15:29:00,59.0,9.9,29.80,SSW,205,0.0,0.0,14,0.00,,---,0.00,VWS V13.01,2013-10-28 19:29:00,
2013-10-28 15:34:00,59.2,10.0,29.80,WNW,283,0.0,0.0,14,0.00,,---,0.00,VWS V13.01,2013-10-28 19:34:00,
2013-10-28 15:39:00,59.2,10.0,29.80,NW,306,0.0,0.0,14,0.00,,---,0.00,VWS V13.01,2013-10-28 19:39:00,
2013-10-28 15:44:00,59.2,10.0,29.80,West,277,0.0,0.0,14,0.00,,---,0.00,VWS V13.01,2013-10-28 19:44:00,
2013-10-28 15:50:00,59.2,10.0,29.80,West,270,0.0,0.0,14,0.00,,---,0.00,VWS V13.01,2013-10-28 19:50:00,
2013-10-28 15:55:00,59.2,10.0,29.80,NNW,330,0.0,0.0,14,0.00,,---,0.00,VWS V13.01,2013-10-28 19:55:00,
2013-10-28 16:00:00,59.2,10.0,29.80,WNW,297,0.0,0.0,14,0.00,,---,0.00,VWS V13.01,2013-10-28 20:00:00,
2013-10-28 16:05:00,59.2,10.0,29.80,WNW,287,0.0,3.6,14,0.00,,---,0.00,VWS V13.01,2013-10-28 20:05:00,
2013-10-28 16:10:00,59.0,9.9,29.80,NW,316,0.0,3.6,14,0.00,,---,0.00,VWS V13.01,2013-10-28 20:10:00,
2013-10-28 16:15:00,59.0,9.9,29.80,NNW,346,0.0,3.6,14,0.00,,---,0.00,VWS V13.01,2013-10-28 20:15:00,
2013-10-28 16:20:00,58.8,9.8,29.80,WNW,284,0.0,0.0,14,0.00,,---,0.00,VWS V13.01,2013-10-28 20:20:00,
2013-10-28 16:25:00,58.8,9.8,29.80,WSW,244,0.0,0.0,14,0.00,,---,0.00,VWS V13.01,2013-10-28 20:25:00,
2013-10-28 16:30:00,58.6,9.6,29.80,NW,316,0.0,0.0,14,0.00,,---,0.00,VWS V13.01,2013-10-28 20:30:00,
2013-10-28 16:35:00,58.6,9.6,29.80,NW,307,0.0,0.0,14,0.00,,---,0.00,VWS V13.01,2013-10-28 20:35:00,
2013-10-28 16:40:00,58.5,9.5,29.80,WNW,299,0.0,0.0,14,0.00,,---,0.00,VWS V13.01,2013-10-28 20:40:00,
2013-10-28 16:46:00,58.5,9.5,29.83,WNW,294,0.0,0.0,14,0.00,,---,0.00,VWS V13.01,2013-10-28 20:46:00,
2013-10-28 16:51:00,58.3,9.3,29.83,NW,319,0.0,0.0,14,0.00,,---,0.00,VWS V13.01,2013-10-28 20:51:00,
2013-10-28 16:56:00,58.1,9.2,29.83,WNW,295,0.0,0.0,14,0.00,,---,0.00,VWS V13.01,2013-10-28 20:56:00,
2013-10-28 17:01:00,57.9,9.0,29.83,NNW,331,0.0,0.0,14,0.00,,---,0.00,VWS V13.01,2013-10-28 21:01:00,
2013-10-28 17:06:00,57.6,8.7,29.83,NW,310,0.0,0.0,14,0.00,,---,0.00,VWS V13.01,2013-10-28 21:06:00,
2013-10-28 17:11:00,57.4,8.6,29.83,NNW,329,0.0,0.0,14,0.00,,---,0.00,VWS V13.01,2013-10-28 21:11:00,
2013-10-28 17:16:00,57.0,9.8,29.83,NNW,330,0.0,0.0,15,0.00,,---,0.00,VWS V13.01,2013-10-28 21:16:00,
2013-10-28 17:21:00,56.7,9.6,29.83,NW,325,0.0,0.0,15,0.00,,---,0.00,VWS V13.01,2013-10-28 21:21:00,
2013-10-28 17:26:00,56.5,9.4,29.83,NW,313,0.0,0.0,15,0.00,,---,0.00,VWS V13.01,2013-10-28 21:26:00,
2013-10-28 17:31:00,56.3,9.3,29.83,NW,308,0.0,0.0,15,0.00,,---,0.00,VWS V13.01,2013-10-28 21:31:00,
2013-10-28 17:37:00,56.1,9.1,29.83,NW,308,0.0,0.0,15,0.00,,---,0.00,VWS V13.01,2013-10-28 21:37:00,
2013-10-28 17:42:00,55.9,9.0,29.83,West,281,0.0,0.0,15,0.00,,---,0.00,VWS V13.01,2013-10-28 21:42:00,
2013-10-28 17:47:00,55.8,8.8,29.83,NNW,332,0.0,0.0,15,0.00,,---,0.00,VWS V13.01,2013-10-28 21:47:00,
2013-10-28 17:52:00,55.6,8.7,29.83,WNW,286,0.0,0.0,15,0.00,,---,0.00,VWS V13.01,2013-10-28 21:52:00,
2013-10-28 17:57:00,55.4,8.5,29.83,WNW,296,0.0,0.0,15,0.00,,---,0.00,VWS V13.01,2013-10-28 21:57:00,
2013-10-28 18:02:00,55.0,8.2,29.85,West,281,0.0,0.0,15,0.00,,---,0.00,VWS V13.01,2013-10-28 22:02:00,
2013-10-28 18:07:00,54.9,8.1,29.85,NW,306,0.0,0.0,15,0.00,,---,0.00,VWS V13.01,2013-10-28 22:07:00,
2013-10-28 18:12:00,54.9,8.1,29.85,NW,305,0.0,0.0,15,0.00,,---,0.00,VWS V13.01,2013-10-28 22:12:00,
2013-10-28 18:17:00,54.7,8.0,29.85,NW,306,0.0,0.0,15,0.00,,---,0.00,VWS V13.01,2013-10-28 22:17:00,
2013-10-28 18:23:00,54.5,7.8,29.85,NW,322,0.0,0.0,15,0.00,,---,0.00,VWS V13.01,2013-10-28 22:23:00,
2013-10-28 18:28:00,54.5,7.8,29.85,NW,323,0.0,0.0,15,0.00,,---,0.00,VWS V13.01,2013-10-28 22:28:00,
2013-10-28 18:33:00,54.3,7.7,29.85,NW,321,0.0,0.0,15,0.00,,---,0.00,VWS V13.01,2013-10-28 22:33:00,
2013-10-28 18:38:00,54.1,7.5,29.85,NW,321,0.0,0.0,15,0.00,,---,0.00,VWS V13.01,2013-10-28 22:38:00,
2013-10-28 18:43:00,54.1,7.5,29.85,NW,321,0.0,0.0,15,0.00,,---,0.00,VWS V13.01,2013-10-28 22:43:00,
2013-10-28 18:48:00,53.8,7.2,29.88,NW,321,0.0,0.0,15,0.00,,---,0.00,VWS V13.01,2013-10-28 22:48:00,
2013-10-28 18:53:00,53.6,7.1,29.88,NW,321,0.0,0.0,15,0.00,,---,0.00,VWS V13.01,2013-10-28 22:53:00,
2013-10-28 18:58:00,53.2,8.2,29.88,NW,321,0.0,0.0,16,0.00,,---,0.00,VWS V13.01,2013-10-28 22:58:00,
2013-10-28 19:04:00,53.1,8.1,29.88,NW,321,0.0,0.0,16,0.00,,---,0.00,VWS V13.01,2013-10-28 23:04:00,
2013-10-28 19:09:00,52.7,7.8,29.88,NW,322,0.0,0.0,16,0.00,,---,0.00,VWS V13.01,2013-10-28 23:09:00,
2013-10-28 19:14:00,52.7,7.8,29.88,NW,322,0.0,0.0,16,0.00,,---,0.00,VWS V13.01,2013-10-28 23:14:00,
2013-10-28 19:19:00,52.7,7.8,29.88,NW,314,0.0,0.0,16,0.00,,---,0.00,VWS V13.01,2013-10-28 23:19:00,
2013-10-28 19:24:00,52.7,7.8,29.88,NW,314,0.0,0.0,16,0.00,,---,0.00,VWS V13.01,2013-10-28 23:24:00,
2013-10-28 19:29:00,52.5,7.6,29.88,NW,315,0.0,0.0,16,0.00,,---,0.00,VWS V13.01,2013-10-28 23:29:00,
2013-10-28 19:34:00,52.3,7.5,29.88,NW,314,0.0,0.0,16,0.00,,---,0.00,VWS V13.01,2013-10-28 23:34:00,
2013-10-28 19:40:00,52.2,7.3,29.88,NW,320,0.0,0.0,16,0.00,,---,0.00,VWS V13.01,2013-10-28 23:40:00,
2013-10-28 19:45:00,51.8,7.1,29.91,NW,320,0.0,0.0,16,0.00,,---,0.00,VWS V13.01,2013-10-28 23:45:00,
2013-10-28 19:50:00,51.6,6.9,29.91,NW,320,0.0,0.0,16,0.00,,---,0.00,VWS V13.01,2013-10-28 23:50:00,
2013-10-28 19:55:00,51.3,6.6,29.91,NNW,338,0.0,0.0,16,0.00,,---,0.00,VWS V13.01,2013-10-28 23:55:00,
2013-10-28 20:00:00,51.3,6.6,29.88,NNW,338,0.0,0.0,16,0.00,,---,0.00,VWS V13.01,2013-10-29 00:00:00,
2013-10-28 20:05:00,51.1,6.5,29.88,NNW,338,0.0,0.0,16,0.00,,---,0.00,VWS V13.01,2013-10-29 00:05:00,
2013-10-28 20:11:00,50.7,6.2,29.88,NNW,338,0.0,0.0,16,0.00,,---,0.00,VWS V13.01,2013-10-29 00:11:00,
2013-10-28 20:16:00,50.5,6.0,29.91,NNW,338,0.0,0.0,16,0.00,,---,0.00,VWS V13.01,2013-10-29 00:16:00,
2013-10-28 20:21:00,50.2,5.7,29.91,NNW,338,0.0,0.0,16,0.00,,---,0.00,VWS V13.01,2013-10-29 00:21:00,
2013-10-28 20:26:00,50.2,5.7,29.91,NNW,338,0.0,0.0,16,0.00,,---,0.00,VWS V13.01,2013-10-29 00:26:00,
2013-10-28 20:31:00,49.8,5.4,29.91,NNW,338,0.0,0.0,16,0.00,,---,0.00,VWS V13.01,2013-10-29 00:31:00,
2013-10-28 20:36:00,49.8,5.4,29.91,NNW,339,0.0,0.0,16,0.00,,---,0.00,VWS V13.01,2013-10-29 00:36:00,
2013-10-28 20:41:00,49.6,5.3,29.91,NNW,337,0.0,0.0,16,0.00,,---,0.00,VWS V13.01,2013-10-29 00:41:00,
2013-10-28 20:46:00,49.5,5.2,29.91,NNW,337,0.0,0.0,16,0.00,,---,0.00,VWS V13.01,2013-10-29 00:46:00,
2013-10-28 20:52:00,49.6,5.3,29.91,NNW,337,0.0,0.0,16,0.00,,---,0.00,VWS V13.01,2013-10-29 00:52:00,
2013-10-28 20:57:00,49.5,5.2,29.91,NNW,338,0.0,0.0,16,0.00,,---,0.00,VWS V13.01,2013-10-29 00:57:00,
2013-10-28 21:02:00,49.3,5.0,29.91,NNW,338,0.0,0.0,16,0.00,,---,0.00,VWS V13.01,2013-10-29 01:02:00,
2013-10-28 21:07:00,49.1,4.9,29.91,NNW,338,0.0,0.0,16,0.00,,---,0.00,VWS V13.01,2013-10-29 01:07:00,
2013-10-28 21:12:00,49.1,4.9,29.91,NNE,21,0.0,0.0,16,0.00,,---,0.00,VWS V13.01,2013-10-29 01:12:00,
2013-10-28 21:17:00,48.9,4.7,29.91,NNW,330,0.0,0.0,16,0.00,,---,0.00,VWS V13.01,2013-10-29 01:17:00,
2013-10-28 21:22:00,48.9,4.7,29.91,NNW,330,0.0,0.0,16,0.00,,---,0.00,VWS V13.01,2013-10-29 01:22:00,
2013-10-28 21:28:00,48.7,4.6,29.91,NNW,333,0.0,0.0,16,0.00,,---,0.00,VWS V13.01,2013-10-29 01:28:00,
2013-10-28 21:33:00,48.7,4.6,29.91,NNW,333,0.0,0.0,16,0.00,,---,0.00,VWS V13.01,2013-10-29 01:33:00,
2013-10-28 21:38:00,48.6,4.4,29.91,NNW,330,0.0,0.0,16,0.00,,---,0.00,VWS V13.01,2013-10-29 01:38:00,
2013-10-28 21:43:00,48.4,4.3,29.91,NE,51,0.0,0.0,16,0.00,,---,0.00,VWS V13.01,2013-10-29 01:43:00,
2013-10-28 21:48:00,48.2,4.1,29.91,NE,51,0.0,0.0,16,0.00,,---,0.00,VWS V13.01,2013-10-29 01:48:00,
2013-10-28 21:53:00,47.8,5.2,29.91,NE,51,0.0,0.0,17,0.00,,---,0.00,VWS V13.01,2013-10-29 01:53:00,
2013-10-28 21:58:00,47.7,5.0,29.94,NE,51,0.0,0.0,17,0.00,,---,0.00,VWS V13.01,2013-10-29 01:58:00,
2013-10-28 22:03:00,47.5,4.8,29.94,NE,51,0.0,0.0,17,0.00,,---,0.00,VWS V13.01,2013-10-29 02:03:00,
2013-10-28 22:09:00,47.5,4.8,29.94,NE,51,0.0,0.0,17,0.00,,---,0.00,VWS V13.01,2013-10-29 02:09:00,
2013-10-28 22:14:00,47.3,4.7,29.94,NE,42,0.0,0.0,17,0.00,,---,0.00,VWS V13.01,2013-10-29 02:14:00,
2013-10-28 22:19:00,47.3,4.7,29.94,NE,41,0.0,0.0,17,0.00,,---,0.00,VWS V13.01,2013-10-29 02:19:00,
2013-10-28 22:24:00,47.1,4.6,29.94,NNE,25,0.0,0.0,17,0.00,,---,0.00,VWS V13.01,2013-10-29 02:24:00,
2013-10-28 22:29:00,47.1,4.6,29.94,NNE,25,0.0,0.0,17,0.00,,---,0.00,VWS V13.01,2013-10-29 02:29:00,
2013-10-28 22:34:00,46.9,4.4,29.94,NNE,25,0.0,0.0,17,0.00,,---,0.00,VWS V13.01,2013-10-29 02:34:00,
2013-10-28 22:39:00,46.6,4.1,29.94,NNE,25,0.0,0.0,17,0.00,,---,0.00,VWS V13.01,2013-10-29 02:39:00,
2013-10-28 22:45:00,46.4,4.0,29.94,NNE,23,0.0,0.0,17,0.00,,---,0.00,VWS V13.01,2013-10-29 02:45:00,
2013-10-28 22:50:00,46.0,3.7,29.94,NNE,23,0.0,0.0,17,0.00,,---,0.00,VWS V13.01,2013-10-29 02:50:00,
2013-10-28 22:55:00,45.9,3.5,29.94,NNE,23,0.0,0.0,17,0.00,,---,0.00,VWS V13.01,2013-10-29 02:55:00,
2013-10-28 23:00:00,45.7,3.4,29.94,NNE,23,0.0,0.0,17,0.00,,---,0.00,VWS V13.01,2013-10-29 03:00:00,
2013-10-28 23:05:00,45.3,3.1,29.94,NNE,23,0.0,0.0,17,0.00,,---,0.00,VWS V13.01,2013-10-29 03:05:00,
2013-10-28 23:11:00,45.3,3.1,29.94,NNE,23,0.0,0.0,17,0.00,,---,0.00,VWS V13.01,2013-10-29 03:11:00,
2013-10-28 23:16:00,45.1,2.9,29.94,NNE,23,0.0,0.0,17,0.00,,---,0.00,VWS V13.01,2013-10-29 03:16:00,
2013-10-28 23:21:00,45.1,2.9,29.94,NNE,23,0.0,0.0,17,0.00,,---,0.00,VWS V13.01,2013-10-29 03:21:00,
2013-10-28 23:26:00,45.0,2.8,29.94,NNE,23,0.0,0.0,17,0.00,,---,0.00,VWS V13.01,2013-10-29 03:26:00,
2013-10-28 23:31:00,44.8,2.6,29.94,NNE,23,0.0,0.0,17,0.00,,---,0.00,VWS V13.01,2013-10-29 03:31:00,
2013-10-28 23:36:00,44.4,3.6,29.94,NNE,23,0.0,0.0,18,0.00,,---,0.00,VWS V13.01,2013-10-29 03:36:00,
2013-10-28 23:42:00,44.2,3.4,29.94,NNE,23,0.0,0.0,18,0.00,,---,0.00,VWS V13.01,2013-10-29 03:42:00,
2013-10-28 23:47:00,43.9,3.1,29.97,NNE,23,0.0,0.0,18,0.00,,---,0.00,VWS V13.01,2013-10-29 03:47:00,
2013-10-28 23:52:00,43.5,2.8,29.97,NNE,23,0.0,0.0,18,0.00,,---,0.00,VWS V13.01,2013-10-29 03:52:00,
2013-10-28 23:57:00,43.0,2.4,29.97,NNE,23,0.0,0.0,18,0.00,,---,0.00,VWS V13.01,2013-10-29 03:57:00,